Weather History for KGGP - November, 2013

Change the Weather History Date:

Sunday, November 3, 2013

  Actual Average (WUND) Record (WUND)
Temperature  
Mean Temperature 40 °F -  
Max Temperature 50 °F - - (-1)
Min Temperature 30 °F - - (-1)
Degree Days  
Heating Degree Days 25    
Moisture  
Dew Point 35 °F    
Average Humidity 85    
Maximum Humidity 100    
Minimum Humidity 54    
Precipitation  
Precipitation 0.00 in - - ()
Sea Level Pressure  
Sea Level Pressure 30.26 in    
Wind  
Wind Speed 5 mph (ESE)    
Max Wind Speed 9 mph    
Max Gust Speed -    
Visibility 8 miles    
Events Fog    
Averages and records for this station are not official NWS values.
T = Trace of Precipitation, MM = Missing Value Source: NWS Daily Summary

Daily Weather History Graph

Daily Weather History Graph

Search for Another Location

Airport or City:

Trip Planner

Search our weather history database for the weather conditions in past years. The results will help you decide how hot, cold, wet, or windy it might be!

Date:

Astronomy

Nov. 03, 2013 Rise Set
Actual Time 7:18 AM EST 5:39 PM EST
Civil Twilight 6:49 AM EST 6:07 PM EST
Nautical Twilight 6:17 AM EST 6:40 PM EST
Astronomical Twilight 5:45 AM EST 7:12 PM EST
Moon 7:21 AM EST (11/3) 5:53 PM EST (11/3)
Length of Visible Light 11h 17m
Length of Day
10h 20m
New Moon, 0% of the Moon is Illuminated
Nov 3
New Moon
Nov 10
First Quarter
Nov 17
Full
Nov 25
Last Quarter
Dec 2
New

Hourly Weather History & Observations

Time (EST) Temp. Windchill Dew Point Humidity Pressure Visibility Wind Dir Wind Speed Gust Speed Precip Events Conditions
12:15 AM 41.0 °F 38.0 °F 37.4 °F 87% 30.13 in 10.0 mi WNW 4.6 mph - N/A   Overcast
12:35 AM 41.0 °F 37.1 °F 37.4 °F 87% 30.13 in 10.0 mi WNW 5.8 mph - N/A   Overcast
12:55 AM 41.0 °F 39.0 °F 35.6 °F 81% 30.13 in 10.0 mi WNW 3.5 mph - N/A   Overcast
1:15 AM 37.4 °F 33.8 °F 35.6 °F 93% 30.13 in 10.0 mi West 4.6 mph - N/A   Overcast
1:35 AM 35.6 °F 30.7 °F 35.6 °F 100% 30.13 in 10.0 mi West 5.8 mph - N/A   Overcast
1:55 AM 35.6 °F 31.7 °F 35.6 °F 100% 30.14 in 10.0 mi West 4.6 mph - N/A   Mostly Cloudy
1:15 AM 35.6 °F 30.7 °F 33.8 °F 93% 30.14 in 10.0 mi WSW 5.8 mph - N/A   Scattered Clouds
1:35 AM 33.8 °F 29.6 °F 33.8 °F 100% 30.14 in 7.0 mi WSW 4.6 mph - N/A   Clear
1:55 AM 35.6 °F 32.8 °F 33.8 °F 93% 30.15 in 10.0 mi WNW 3.5 mph - N/A   Mostly Cloudy
2:15 AM 35.6 °F 32.8 °F 35.6 °F 100% 30.15 in 10.0 mi West 3.5 mph - N/A   Overcast
2:35 AM 33.8 °F 29.6 °F 33.8 °F 100% 30.16 in 7.0 mi West 4.6 mph - N/A   Scattered Clouds
2:55 AM 35.6 °F 30.7 °F 33.8 °F 93% 30.17 in 7.0 mi West 5.8 mph - N/A   Clear
3:15 AM 35.6 °F 31.7 °F 35.6 °F 100% 30.18 in 7.0 mi WNW 4.6 mph - N/A   Scattered Clouds
3:35 AM 35.6 °F 31.7 °F 35.6 °F 100% 30.18 in 10.0 mi WNW 4.6 mph - N/A   Scattered Clouds
3:55 AM 35.6 °F 31.7 °F 35.6 °F 100% 30.18 in 10.0 mi WNW 4.6 mph - N/A   Mostly Cloudy
4:15 AM 33.8 °F 28.6 °F 32.0 °F 93% 30.19 in 5.0 mi West 5.8 mph - N/A   Scattered Clouds
4:35 AM 33.8 °F 30.8 °F 32.0 °F 93% 30.20 in 5.0 mi West 3.5 mph - N/A   Clear
4:55 AM 33.8 °F - 32.0 °F 93% 30.21 in 5.0 mi Calm Calm - N/A   Clear
5:15 AM 33.8 °F - 33.8 °F 100% 30.21 in 4.0 mi Calm Calm - N/A   Clear
5:35 AM 33.8 °F - 32.0 °F 93% 30.22 in 3.0 mi Calm Calm - N/A   Clear
5:55 AM 32.0 °F - 32.0 °F 100% 30.23 in 1.5 mi Calm Calm - N/A   Mist
6:15 AM 32.0 °F - 32.0 °F 100% 30.24 in 0.2 mi Calm Calm - N/A Fog Fog
6:35 AM 32.0 °F - 30.2 °F 93% 30.25 in 0.2 mi Calm Calm - N/A Fog Light Freezing Fog
6:55 AM 32.0 °F - 30.2 °F 93% 30.26 in 0.2 mi Calm Calm - N/A Fog Light Freezing Fog
7:15 AM 30.2 °F - 30.2 °F 100% 30.26 in 0.2 mi Calm Calm - N/A Fog Light Freezing Fog
7:35 AM 30.2 °F - 30.2 °F 100% 30.27 in 0.2 mi Calm Calm - N/A Fog Light Freezing Fog
7:55 AM 30.2 °F - 30.2 °F 100% 30.28 in 0.2 mi Calm Calm - N/A Fog Light Freezing Fog
8:15 AM 32.0 °F - 32.0 °F 100% 30.29 in 0.2 mi Calm Calm - N/A Fog Light Freezing Fog
8:35 AM 32.0 °F - 32.0 °F 100% 30.30 in 0.2 mi Calm Calm - N/A Fog Fog
8:55 AM 35.6 °F - 33.8 °F 93% 30.31 in 0.2 mi Calm Calm - N/A Fog Fog
9:15 AM 37.4 °F - 37.4 °F 100% 30.31 in 1.0 mi Calm Calm - N/A   Overcast
9:35 AM 37.4 °F - 37.4 °F 100% 30.31 in 5.0 mi Calm Calm - N/A   Scattered Clouds
9:55 AM 41.0 °F 37.1 °F 41.0 °F 100% 30.32 in 10.0 mi East 5.8 mph - N/A   Mostly Cloudy
10:15 AM 42.8 °F 39.3 °F 41.0 °F 93% 30.33 in 10.0 mi East 5.8 mph - N/A   Mostly Cloudy
10:35 AM 42.8 °F 38.0 °F 39.2 °F 87% 30.33 in 10.0 mi East 8.1 mph - N/A   Overcast
10:55 AM 42.8 °F 38.6 °F 39.2 °F 87% 30.34 in 10.0 mi East 6.9 mph - N/A   Overcast
11:15 AM 44.6 °F 40.2 °F 39.2 °F 81% 30.34 in 10.0 mi ESE 8.1 mph - N/A   Overcast
11:35 AM 44.6 °F 40.2 °F 39.2 °F 81% 30.34 in 10.0 mi East 8.1 mph - N/A   Overcast
11:55 AM 44.6 °F 39.7 °F 39.2 °F 81% 30.33 in 10.0 mi ESE 9.2 mph - N/A   Overcast
12:15 PM 46.4 °F 42.9 °F 41.0 °F 81% 30.33 in 10.0 mi ESE 6.9 mph - N/A   Mostly Cloudy
12:35 PM 44.6 °F 40.7 °F 35.6 °F 71% 30.32 in 10.0 mi East 6.9 mph - N/A   Mostly Cloudy
12:55 PM 46.4 °F 41.9 °F 37.4 °F 71% 30.31 in 10.0 mi SE 9.2 mph - N/A   Mostly Cloudy
1:15 PM 46.4 °F 42.9 °F 35.6 °F 66% 30.30 in 10.0 mi ESE 6.9 mph - N/A   Mostly Cloudy
1:35 PM 50.0 °F - 35.6 °F 58% 30.29 in 10.0 mi SSE 9.2 mph - N/A   Scattered Clouds
1:55 PM 46.4 °F 42.4 °F 35.6 °F 66% 30.30 in 10.0 mi ESE 8.1 mph - N/A   Clear
2:15 PM 46.4 °F 42.9 °F 35.6 °F 66% 30.30 in 10.0 mi SE 6.9 mph - N/A   Scattered Clouds
2:35 PM 50.0 °F - 35.6 °F 58% 30.30 in 10.0 mi ESE 5.8 mph - N/A   Scattered Clouds
2:55 PM 50.0 °F - 35.6 °F 58% 30.29 in 10.0 mi ESE 9.2 mph - N/A   Clear
3:15 PM 50.0 °F - 33.8 °F 54% 30.29 in 10.0 mi ESE 9.2 mph - N/A   Scattered Clouds
3:35 PM 50.0 °F - 35.6 °F 58% 30.30 in 10.0 mi SE 6.9 mph - N/A   Scattered Clouds
3:55 PM 50.0 °F - 33.8 °F 54% 30.30 in 10.0 mi SE 6.9 mph - N/A   Scattered Clouds
4:15 PM 48.2 °F - 33.8 °F 58% 30.29 in 10.0 mi SE 8.1 mph - N/A   Clear
4:35 PM 48.2 °F - 33.8 °F 58% 30.29 in 10.0 mi SE 6.9 mph - N/A   Clear
4:55 PM 46.4 °F 41.9 °F 33.8 °F 62% 30.29 in 10.0 mi ESE 9.2 mph - N/A   Clear
5:15 PM 44.6 °F 40.7 °F 35.6 °F 71% 30.29 in 10.0 mi ESE 6.9 mph - N/A   Clear
5:35 PM 41.0 °F 36.4 °F 33.8 °F 76% 30.29 in 10.0 mi East 6.9 mph - N/A   Clear
5:55 PM 41.0 °F 37.1 °F 33.8 °F 76% 30.29 in 10.0 mi East 5.8 mph - N/A   Clear
6:15 PM 39.2 °F 35.0 °F 33.8 °F 81% 30.30 in 10.0 mi East 5.8 mph - N/A   Clear
6:35 PM 37.4 °F 32.1 °F 33.8 °F 87% 30.30 in 10.0 mi East 6.9 mph - N/A   Clear
6:55 PM 39.2 °F 33.6 °F 33.8 °F 81% 30.30 in 10.0 mi East 8.1 mph - N/A   Clear
7:15 PM 39.2 °F 34.2 °F 33.8 °F 81% 30.30 in 10.0 mi East 6.9 mph - N/A   Clear
7:35 PM 39.2 °F 35.0 °F 33.8 °F 81% 30.31 in 10.0 mi East 5.8 mph - N/A   Clear
7:55 PM 39.2 °F 33.0 °F 33.8 °F 81% 30.31 in 10.0 mi East 9.2 mph - N/A   Clear
8:15 PM 39.2 °F 33.6 °F 33.8 °F 81% 30.31 in 10.0 mi East 8.1 mph - N/A   Clear
8:35 PM 37.4 °F 31.4 °F 33.8 °F 87% 30.31 in 10.0 mi East 8.1 mph - N/A   Clear
8:55 PM 37.4 °F 31.4 °F 33.8 °F 87% 30.31 in 10.0 mi ESE 8.1 mph - N/A   Clear
9:15 PM 37.4 °F 32.1 °F 33.8 °F 87% 30.31 in 10.0 mi ESE 6.9 mph - N/A   Clear
9:35 PM 37.4 °F 31.4 °F 33.8 °F 87% 30.32 in 10.0 mi ESE 8.1 mph - N/A   Clear
9:55 PM 35.6 °F 29.2 °F 33.8 °F 93% 30.33 in 10.0 mi East 8.1 mph - N/A   Clear
10:15 PM 35.6 °F 29.2 °F 33.8 °F 93% 30.33 in 10.0 mi East 8.1 mph - N/A   Clear
10:35 PM 37.4 °F 30.8 °F 33.8 °F 87% 30.33 in 10.0 mi ESE 9.2 mph - N/A   Clear
10:55 PM 37.4 °F 31.4 °F 33.8 °F 87% 30.33 in 10.0 mi ESE 8.1 mph - N/A   Clear